Time,TemperatureF,DewpointF,PressureIn,WindDirection,WindDirectionDegrees,WindSpeedMPH,WindSpeedGustMPH,Humidity,HourlyPrecipIn,Conditions,Clouds,dailyrainin,SoftwareType,DateUTC
2013-03-28 00:00:00,54.4,34.1,30.16,SSE,165,0.0,5.0,46,0.00,,,0.00,VWS V14.01,2013-03-28 05:00:00,
2013-03-28 00:05:00,54.1,33.8,30.16,SSE,164,0.0,2.0,46,0.00,,,0.00,VWS V14.01,2013-03-28 05:05:00,
2013-03-28 00:10:00,53.9,33.6,30.16,SSE,158,0.0,3.0,46,0.00,,,0.00,VWS V14.01,2013-03-28 05:10:00,
2013-03-28 00:15:00,53.6,33.9,30.16,SE,144,0.0,5.0,47,0.00,,,0.00,VWS V14.01,2013-03-28 05:15:00,
2013-03-28 00:20:00,53.3,33.6,30.16,SE,144,1.0,5.0,47,0.00,,,0.00,VWS V14.01,2013-03-28 05:20:00,
2013-03-28 00:25:00,53.1,33.4,30.16,SE,146,0.0,5.0,47,0.00,,,0.00,VWS V14.01,2013-03-28 05:25:00,
2013-03-28 00:30:00,52.8,33.2,30.16,SE,146,0.0,5.0,47,0.00,,,0.00,VWS V14.01,2013-03-28 05:30:00,
2013-03-28 00:35:00,52.6,33.5,30.16,SE,146,0.0,1.0,48,0.00,,,0.00,VWS V14.01,2013-03-28 05:35:00,
2013-03-28 00:40:00,52.3,33.2,30.16,SE,146,0.0,1.0,48,0.00,,,0.00,VWS V14.01,2013-03-28 05:40:00,
2013-03-28 00:45:00,52.0,32.9,30.16,SE,142,0.0,4.0,48,0.00,,,0.00,VWS V14.01,2013-03-28 05:45:00,
2013-03-28 00:50:00,51.8,32.8,30.16,SE,142,0.0,4.0,48,0.00,,,0.00,VWS V14.01,2013-03-28 05:50:00,
2013-03-28 00:55:00,51.6,33.1,30.16,SE,142,0.0,4.0,49,0.00,,,0.00,VWS V14.01,2013-03-28 05:55:00,
2013-03-28 01:00:00,51.3,32.8,30.16,SE,142,0.0,4.0,49,0.00,,,0.00,VWS V14.01,2013-03-28 06:00:00,
2013-03-28 01:05:00,51.1,32.6,30.16,SE,142,0.0,2.0,49,0.00,,,0.00,VWS V14.01,2013-03-28 06:05:00,
2013-03-28 01:10:00,50.9,32.4,30.16,SE,142,0.0,2.0,49,0.00,,,0.00,VWS V14.01,2013-03-28 06:10:00,
2013-03-28 01:15:00,50.6,32.7,30.16,SE,142,0.0,2.0,50,0.00,,,0.00,VWS V14.01,2013-03-28 06:15:00,
2013-03-28 01:20:00,50.4,32.5,30.16,SE,142,0.0,2.0,50,0.00,,,0.00,VWS V14.01,2013-03-28 06:20:00,
2013-03-28 01:25:00,50.2,32.8,30.16,SE,142,0.0,2.0,51,0.00,,,0.00,VWS V14.01,2013-03-28 06:25:00,
2013-03-28 01:30:00,49.9,33.0,30.16,SE,141,0.0,2.0,52,0.00,,,0.00,VWS V14.01,2013-03-28 06:30:00,
2013-03-28 01:35:00,49.6,32.7,30.16,SE,141,0.0,0.0,52,0.00,,,0.00,VWS V14.01,2013-03-28 06:35:00,
2013-03-28 01:40:00,49.2,32.8,30.16,SE,142,0.0,0.0,53,0.00,,,0.00,VWS V14.01,2013-03-28 06:40:00,
2013-03-28 01:45:00,48.9,32.5,30.16,SE,142,0.0,1.0,53,0.00,,,0.00,VWS V14.01,2013-03-28 06:45:00,
2013-03-28 01:50:00,48.6,32.7,30.16,SE,142,0.0,1.0,54,0.00,,,0.00,VWS V14.01,2013-03-28 06:50:00,
2013-03-28 01:55:00,48.4,32.5,30.16,SE,142,0.0,1.0,54,0.00,,,0.00,VWS V14.01,2013-03-28 06:55:00,
2013-03-28 02:00:00,48.2,32.8,30.16,SE,141,0.0,1.0,55,0.00,,,0.00,VWS V14.01,2013-03-28 07:00:00,
2013-03-28 02:05:00,47.9,32.5,30.16,SE,142,0.0,0.0,55,0.00,,,0.00,VWS V14.01,2013-03-28 07:05:00,
2013-03-28 02:10:00,47.7,32.3,30.16,SE,142,0.0,0.0,55,0.00,,,0.00,VWS V14.01,2013-03-28 07:10:00,
2013-03-28 02:15:00,47.5,32.6,30.16,SE,141,0.0,0.0,56,0.00,,,0.00,VWS V14.01,2013-03-28 07:15:00,
2013-03-28 02:20:00,47.2,32.3,30.16,SE,141,0.0,0.0,56,0.00,,,0.00,VWS V14.01,2013-03-28 07:20:00,
2013-03-28 02:25:00,47.1,32.7,30.16,SE,142,0.0,0.0,57,0.00,,,0.00,VWS V14.01,2013-03-28 07:25:00,
2013-03-28 02:30:00,46.9,32.9,30.16,SE,141,0.0,0.0,58,0.00,,,0.00,VWS V14.01,2013-03-28 07:30:00,
2013-03-28 02:35:00,46.7,32.7,30.16,SE,141,0.0,0.0,58,0.00,,,0.00,VWS V14.01,2013-03-28 07:35:00,
2013-03-28 02:40:00,46.5,32.5,30.16,SE,141,0.0,0.0,58,0.00,,,0.00,VWS V14.01,2013-03-28 07:40:00,
2013-03-28 02:45:00,46.2,32.2,30.16,SE,142,0.0,0.0,58,0.00,,,0.00,VWS V14.01,2013-03-28 07:45:00,
2013-03-28 02:50:00,46.0,32.1,30.16,SE,141,0.0,0.0,58,0.00,,,0.00,VWS V14.01,2013-03-28 07:50:00,
2013-03-28 02:55:00,45.8,32.3,30.16,SE,142,0.0,0.0,59,0.00,,,0.00,VWS V14.01,2013-03-28 07:55:00,
2013-03-28 03:00:00,45.6,32.5,30.16,SE,142,0.0,0.0,60,0.00,,,0.00,VWS V14.01,2013-03-28 08:00:00,
2013-03-28 03:05:00,45.4,32.3,30.15,SE,142,0.0,0.0,60,0.00,,,0.00,VWS V14.01,2013-03-28 08:05:00,
2013-03-28 03:10:00,45.1,32.5,30.15,SE,141,0.0,0.0,61,0.00,,,0.00,VWS V14.01,2013-03-28 08:10:00,
2013-03-28 03:15:00,45.0,32.0,30.15,SE,142,0.0,0.0,60,0.00,,,0.00,VWS V14.01,2013-03-28 08:15:00,
2013-03-28 03:20:00,44.8,32.2,30.15,SE,142,0.0,0.0,61,0.00,,,0.00,VWS V14.01,2013-03-28 08:20:00,
2013-03-28 03:25:00,44.6,32.0,30.15,SE,142,0.0,0.0,61,0.00,,,0.00,VWS V14.01,2013-03-28 08:25:00,
2013-03-28 03:30:00,44.3,31.7,30.15,SE,142,0.0,0.0,61,0.00,,,0.00,VWS V14.01,2013-03-28 08:30:00,
2013-03-28 03:35:00,44.2,32.0,30.15,SE,142,0.0,0.0,62,0.00,,,0.00,VWS V14.01,2013-03-28 08:35:00,
2013-03-28 03:40:00,44.0,31.8,30.15,SE,142,0.0,0.0,62,0.00,,,0.00,VWS V14.01,2013-03-28 08:40:00,
2013-03-28 03:45:00,43.9,31.7,30.15,SE,142,0.0,1.0,62,0.00,,,0.00,VWS V14.01,2013-03-28 08:45:00,
2013-03-28 03:50:00,43.8,32.0,30.15,SE,141,0.0,1.0,63,0.00,,,0.00,VWS V14.01,2013-03-28 08:50:00,
2013-03-28 03:55:00,43.6,31.9,30.15,SE,141,0.0,1.0,63,0.00,,,0.00,VWS V14.01,2013-03-28 08:55:00,
2013-03-28 04:00:00,43.6,32.2,30.15,SE,142,0.0,1.0,64,0.00,,,0.00,VWS V14.01,2013-03-28 09:00:00,
2013-03-28 04:05:00,43.5,32.5,30.15,SE,141,0.0,0.0,65,0.00,,,0.00,VWS V14.01,2013-03-28 09:05:00,
2013-03-28 04:10:00,43.4,32.0,30.15,SE,142,0.0,0.0,64,0.00,,,0.00,VWS V14.01,2013-03-28 09:10:00,
2013-03-28 04:15:00,43.4,32.0,30.16,SE,141,0.0,0.0,64,0.00,,,0.00,VWS V14.01,2013-03-28 09:15:00,
2013-03-28 04:20:00,43.4,32.4,30.15,SE,141,0.0,0.0,65,0.00,,,0.00,VWS V14.01,2013-03-28 09:20:00,
2013-03-28 04:25:00,43.3,32.3,30.15,SE,142,0.0,0.0,65,0.00,,,0.00,VWS V14.01,2013-03-28 09:25:00,
2013-03-28 04:30:00,43.3,32.3,30.15,SE,141,0.0,0.0,65,0.00,,,0.00,VWS V14.01,2013-03-28 09:30:00,
2013-03-28 04:35:00,43.2,32.2,30.15,SE,142,0.0,0.0,65,0.00,,,0.00,VWS V14.01,2013-03-28 09:35:00,
2013-03-28 04:40:00,43.1,32.5,30.15,SE,141,0.0,0.0,66,0.00,,,0.00,VWS V14.01,2013-03-28 09:40:00,
2013-03-28 04:45:00,43.1,32.5,30.15,SE,141,0.0,0.0,66,0.00,,,0.00,VWS V14.01,2013-03-28 09:45:00,
2013-03-28 04:50:00,43.0,32.4,30.15,SE,141,0.0,1.0,66,0.00,,,0.00,VWS V14.01,2013-03-28 09:50:00,
2013-03-28 04:55:00,42.9,32.3,30.15,SE,141,0.0,1.0,66,0.00,,,0.00,VWS V14.01,2013-03-28 09:55:00,
2013-03-28 05:00:00,42.8,32.2,30.15,SE,141,0.0,1.0,66,0.00,,,0.00,VWS V14.01,2013-03-28 10:00:00,
2013-03-28 05:05:00,42.7,32.2,30.15,SE,142,0.0,0.0,66,0.00,,,0.00,VWS V14.01,2013-03-28 10:05:00,
2013-03-28 05:10:00,42.6,32.0,30.15,SE,142,0.0,0.0,66,0.00,,,0.00,VWS V14.01,2013-03-28 10:10:00,
2013-03-28 05:15:00,42.5,32.3,30.15,SE,142,0.0,0.0,67,0.00,,,0.00,VWS V14.01,2013-03-28 10:15:00,
2013-03-28 05:20:00,42.4,32.6,30.15,SE,141,0.0,1.0,68,0.00,,,0.00,VWS V14.01,2013-03-28 10:20:00,
2013-03-28 05:25:00,42.3,32.5,30.15,SE,142,0.0,1.0,68,0.00,,,0.00,VWS V14.01,2013-03-28 10:25:00,
2013-03-28 05:30:00,42.3,32.5,30.15,SE,141,0.0,1.0,68,0.00,,,0.00,VWS V14.01,2013-03-28 10:30:00,
2013-03-28 05:35:00,42.3,32.5,30.15,SE,142,0.0,1.0,68,0.00,,,0.00,VWS V14.01,2013-03-28 10:35:00,
2013-03-28 05:40:00,42.3,32.5,30.15,SE,141,0.0,1.0,68,0.00,,,0.00,VWS V14.01,2013-03-28 10:40:00,
2013-03-28 05:45:00,42.2,32.4,30.15,SE,142,0.0,1.0,68,0.00,,,0.00,VWS V14.01,2013-03-28 10:45:00,
2013-03-28 05:50:00,42.2,32.4,30.15,SE,142,0.0,3.0,68,0.00,,,0.00,VWS V14.01,2013-03-28 10:50:00,
2013-03-28 05:55:00,42.2,32.4,30.15,SE,142,0.0,3.0,68,0.00,,,0.00,VWS V14.01,2013-03-28 10:55:00,
2013-03-28 06:00:00,42.2,32.4,30.15,SE,142,0.0,3.0,68,0.00,,,0.00,VWS V14.01,2013-03-28 11:00:00,
2013-03-28 06:05:00,42.3,32.9,30.16,SE,142,0.0,0.0,69,0.00,,,0.00,VWS V14.01,2013-03-28 11:05:00,
2013-03-28 06:10:00,42.3,32.9,30.16,SE,142,1.0,1.0,69,0.00,,,0.00,VWS V14.01,2013-03-28 11:10:00,
2013-03-28 06:15:00,42.4,33.0,30.15,SE,142,0.0,2.0,69,0.00,,,0.00,VWS V14.01,2013-03-28 11:15:00,
2013-03-28 06:20:00,42.4,32.6,30.15,SE,142,0.0,2.0,68,0.00,,,0.00,VWS V14.01,2013-03-28 11:20:00,
2013-03-28 06:25:00,42.4,33.0,30.15,SE,142,0.0,2.0,69,0.00,,,0.00,VWS V14.01,2013-03-28 11:25:00,
2013-03-28 06:30:00,42.4,32.6,30.16,SE,142,0.0,2.0,68,0.00,,,0.00,VWS V14.01,2013-03-28 11:30:00,
2013-03-28 06:35:00,42.4,34.0,30.16,SE,142,0.0,0.0,72,0.00,,,0.00,VWS V14.01,2013-03-28 11:35:00,
2013-03-28 06:40:00,42.4,32.6,30.16,SE,142,0.0,0.0,68,0.00,,,0.00,VWS V14.01,2013-03-28 11:40:00,
2013-03-28 06:45:00,42.4,33.0,30.16,SE,142,0.0,0.0,69,0.00,,,0.00,VWS V14.01,2013-03-28 11:45:00,
2013-03-28 06:50:00,42.4,33.0,30.16,SE,142,0.0,0.0,69,0.00,,,0.00,VWS V14.01,2013-03-28 11:50:00,
2013-03-28 06:55:00,42.5,33.1,30.16,SE,142,0.0,1.0,69,0.00,,,0.00,VWS V14.01,2013-03-28 11:55:00,
2013-03-28 07:00:00,42.6,33.2,30.16,SE,142,0.0,1.0,69,0.00,,,0.00,VWS V14.01,2013-03-28 12:00:00,
2013-03-28 07:05:00,42.7,33.2,30.17,SE,142,0.0,1.0,69,0.00,,,0.00,VWS V14.01,2013-03-28 12:05:00,
2013-03-28 07:10:00,42.8,33.0,30.17,SE,143,0.0,2.0,68,0.00,,,0.00,VWS V14.01,2013-03-28 12:10:00,
2013-03-28 07:15:00,43.0,33.2,30.17,SE,143,0.0,3.0,68,0.00,,,0.00,VWS V14.01,2013-03-28 12:15:00,
2013-03-28 07:20:00,43.2,33.4,30.17,SE,143,2.0,3.0,68,0.00,,,0.00,VWS V14.01,2013-03-28 12:20:00,
2013-03-28 07:25:00,43.3,33.5,30.17,SSE,150,0.0,3.0,68,0.00,,,0.00,VWS V14.01,2013-03-28 12:25:00,
2013-03-28 07:30:00,43.6,33.8,30.17,SSE,150,0.0,3.0,68,0.00,,,0.00,VWS V14.01,2013-03-28 12:30:00,
2013-03-28 07:35:00,43.7,33.8,30.17,SSE,150,1.0,1.0,68,0.00,,,0.00,VWS V14.01,2013-03-28 12:35:00,
2013-03-28 07:40:00,43.9,33.7,30.17,SSE,148,1.0,3.0,67,0.00,,,0.00,VWS V14.01,2013-03-28 12:40:00,
2013-03-28 07:45:00,44.1,33.9,30.17,South,190,0.0,3.0,67,0.00,,,0.00,VWS V14.01,2013-03-28 12:45:00,
2013-03-28 07:50:00,44.3,34.0,30.18,South,185,0.0,3.0,67,0.00,,,0.00,VWS V14.01,2013-03-28 12:50:00,
2013-03-28 07:55:00,44.5,34.2,30.18,South,180,0.0,3.0,67,0.00,,,0.00,VWS V14.01,2013-03-28 12:55:00,
2013-03-28 08:00:00,44.8,34.5,30.18,SE,136,0.0,5.0,67,0.00,,,0.00,VWS V14.01,2013-03-28 13:00:00,
2013-03-28 08:05:00,45.0,34.7,30.18,SSE,150,0.0,6.0,67,0.00,,,0.00,VWS V14.01,2013-03-28 13:05:00,
2013-03-28 08:10:00,45.4,34.7,30.18,SE,139,2.0,6.0,66,0.00,,,0.00,VWS V14.01,2013-03-28 13:10:00,
2013-03-28 08:15:00,45.8,35.1,30.18,SSE,157,1.0,6.0,66,0.00,,,0.00,VWS V14.01,2013-03-28 13:15:00,
2013-03-28 08:20:00,46.6,35.5,30.18,SE,128,1.0,6.0,65,0.00,,,0.00,VWS V14.01,2013-03-28 13:20:00,
2013-03-28 08:25:00,47.5,36.3,30.18,SE,128,0.0,6.0,65,0.00,,,0.00,VWS V14.01,2013-03-28 13:25:00,
2013-03-28 08:30:00,48.3,36.7,30.19,SSW,195,0.0,7.0,64,0.00,,,0.00,VWS V14.01,2013-03-28 13:30:00,
2013-03-28 08:35:00,49.2,36.8,30.18,SE,138,0.0,5.0,62,0.00,,,0.00,VWS V14.01,2013-03-28 13:35:00,
2013-03-28 08:40:00,50.0,37.5,30.18,SE,140,0.0,5.0,62,0.00,,,0.00,VWS V14.01,2013-03-28 13:40:00,
2013-03-28 08:45:00,50.7,37.8,30.19,ESE,118,0.0,9.0,61,0.00,,,0.00,VWS V14.01,2013-03-28 13:45:00,
2013-03-28 08:50:00,51.2,37.8,30.18,South,169,1.0,9.0,60,0.00,,,0.00,VWS V14.01,2013-03-28 13:50:00,
2013-03-28 08:55:00,51.6,39.0,30.19,South,183,5.0,9.0,62,0.00,,,0.00,VWS V14.01,2013-03-28 13:55:00,
2013-03-28 09:00:00,52.3,39.3,30.19,SE,138,4.0,9.0,61,0.00,,,0.00,VWS V14.01,2013-03-28 14:00:00,
2013-03-28 09:05:00,52.5,39.5,30.19,SSE,161,4.0,5.0,61,0.00,,,0.00,VWS V14.01,2013-03-28 14:05:00,
2013-03-28 09:10:00,52.9,39.4,30.19,South,169,5.0,6.0,60,0.00,,,0.00,VWS V14.01,2013-03-28 14:10:00,
2013-03-28 09:15:00,53.5,40.4,30.19,SSE,159,4.0,6.0,61,0.00,,,0.00,VWS V14.01,2013-03-28 14:15:00,
2013-03-28 09:20:00,54.2,40.6,30.19,SSE,151,5.0,8.0,60,0.00,,,0.00,VWS V14.01,2013-03-28 14:20:00,
2013-03-28 09:25:00,54.7,41.5,30.19,SE,145,2.0,8.0,61,0.00,,,0.00,VWS V14.01,2013-03-28 14:25:00,
2013-03-28 09:30:00,55.4,41.8,30.19,SSE,161,6.0,8.0,60,0.00,,,0.00,VWS V14.01,2013-03-28 14:30:00,
2013-03-28 09:35:00,56.1,42.8,30.19,SE,134,5.0,10.0,61,0.00,,,0.00,VWS V14.01,2013-03-28 14:35:00,
2013-03-28 09:40:00,57.2,43.0,30.19,ESE,121,6.0,10.0,59,0.00,,,0.00,VWS V14.01,2013-03-28 14:40:00,
2013-03-28 09:45:00,57.4,43.2,30.19,SE,145,5.0,10.0,59,0.00,,,0.00,VWS V14.01,2013-03-28 14:45:00,
2013-03-28 09:50:00,57.7,43.5,30.19,South,171,4.0,10.0,59,0.00,,,0.00,VWS V14.01,2013-03-28 14:50:00,
2013-03-28 09:55:00,58.6,44.3,30.19,SSE,165,5.0,10.0,59,0.00,,,0.00,VWS V14.01,2013-03-28 14:55:00,
2013-03-28 10:00:00,59.2,44.5,30.19,ESE,119,7.0,10.0,58,0.00,,,0.00,VWS V14.01,2013-03-28 15:00:00,
2013-03-28 10:05:00,59.9,45.1,30.19,SSW,200,6.0,9.0,58,0.00,,,0.00,VWS V14.01,2013-03-28 15:05:00,
2013-03-28 10:10:00,60.8,46.4,30.19,SSE,151,5.0,11.0,59,0.00,,,0.00,VWS V14.01,2013-03-28 15:10:00,
2013-03-28 10:15:00,61.4,46.5,30.19,SE,145,5.0,11.0,58,0.00,,,0.00,VWS V14.01,2013-03-28 15:15:00,
2013-03-28 10:20:00,61.8,46.9,30.19,SSW,206,4.0,11.0,58,0.00,,,0.00,VWS V14.01,2013-03-28 15:20:00,
2013-03-28 10:25:00,62.4,47.5,30.19,South,171,2.0,11.0,58,0.00,,,0.00,VWS V14.01,2013-03-28 15:25:00,
2013-03-28 10:30:00,62.9,47.5,30.19,South,190,2.0,11.0,57,0.00,,,0.00,VWS V14.01,2013-03-28 15:30:00,
2013-03-28 10:35:00,63.2,47.3,30.19,SSW,207,4.0,9.0,56,0.00,,,0.00,VWS V14.01,2013-03-28 15:35:00,
2013-03-28 10:40:00,62.6,47.6,30.19,SSE,161,5.0,10.0,58,0.00,,,0.00,VWS V14.01,2013-03-28 15:40:00,
2013-03-28 10:45:00,62.9,47.9,30.19,SE,138,6.0,10.0,58,0.00,,,0.00,VWS V14.01,2013-03-28 15:45:00,
2013-03-28 10:50:00,62.9,47.9,30.19,WSW,239,8.0,10.0,58,0.00,,,0.00,VWS V14.01,2013-03-28 15:50:00,
2013-03-28 10:55:00,62.9,48.4,30.19,SSE,166,7.0,10.0,59,0.00,,,0.00,VWS V14.01,2013-03-28 15:55:00,
2013-03-28 11:00:00,62.7,48.2,30.19,SSE,167,2.0,10.0,59,0.00,,,0.00,VWS V14.01,2013-03-28 16:00:00,
2013-03-28 11:05:00,62.6,48.5,30.19,South,173,1.0,10.0,60,0.00,,,0.00,VWS V14.01,2013-03-28 16:05:00,
2013-03-28 11:10:00,63.1,48.6,30.19,SSE,159,1.0,10.0,59,0.00,,,0.00,VWS V14.01,2013-03-28 16:10:00,
2013-03-28 11:15:00,63.3,48.3,30.19,SSE,163,4.0,10.0,58,0.00,,,0.00,VWS V14.01,2013-03-28 16:15:00,
2013-03-28 11:20:00,63.5,48.9,30.19,SSW,207,7.0,10.0,59,0.00,,,0.00,VWS V14.01,2013-03-28 16:20:00,
2013-03-28 11:25:00,63.8,49.2,30.19,SSE,161,4.0,10.0,59,0.00,,,0.00,VWS V14.01,2013-03-28 16:25:00,
2013-03-28 11:30:00,63.9,48.8,30.19,SSE,165,9.0,10.0,58,0.00,,,0.00,VWS V14.01,2013-03-28 16:30:00,
2013-03-28 11:35:00,64.0,48.9,30.19,SW,221,7.0,9.0,58,0.00,,,0.00,VWS V14.01,2013-03-28 16:35:00,
2013-03-28 11:40:00,65.1,49.5,30.19,South,175,8.0,9.0,57,0.00,,,0.00,VWS V14.01,2013-03-28 16:40:00,
2013-03-28 11:45:00,65.2,49.6,30.19,SE,145,5.0,10.0,57,0.00,,,0.00,VWS V14.01,2013-03-28 16:45:00,
2013-03-28 11:50:00,66.1,50.0,30.19,South,178,7.0,11.0,56,0.00,,,0.00,VWS V14.01,2013-03-28 16:50:00,
2013-03-28 11:55:00,66.1,50.0,30.19,South,191,6.0,11.0,56,0.00,,,0.00,VWS V14.01,2013-03-28 16:55:00,
2013-03-28 12:00:00,66.0,49.9,30.19,SE,138,7.0,11.0,56,0.00,,,0.00,VWS V14.01,2013-03-28 17:00:00,
2013-03-28 12:05:00,66.3,49.7,30.19,SSE,163,2.0,7.0,55,0.00,,,0.00,VWS V14.01,2013-03-28 17:05:00,
2013-03-28 12:10:00,66.3,50.2,30.19,ESE,110,4.0,7.0,56,0.00,,,0.00,VWS V14.01,2013-03-28 17:10:00,
2013-03-28 12:15:00,66.2,50.1,30.18,SSW,204,9.0,9.0,56,0.00,,,0.00,VWS V14.01,2013-03-28 17:15:00,
2013-03-28 12:20:00,66.2,50.5,30.18,SW,218,11.0,11.0,57,0.00,,,0.00,VWS V14.01,2013-03-28 17:20:00,
2013-03-28 12:25:00,66.5,50.3,30.18,SSE,152,5.0,11.0,56,0.00,,,0.00,VWS V14.01,2013-03-28 17:25:00,
2013-03-28 12:30:00,66.8,50.1,30.18,SSE,164,8.0,11.0,55,0.00,,,0.00,VWS V14.01,2013-03-28 17:30:00,
2013-03-28 12:35:00,67.1,50.4,30.18,SSE,156,5.0,9.0,55,0.00,,,0.00,VWS V14.01,2013-03-28 17:35:00,
2013-03-28 12:40:00,67.5,50.8,30.17,SSW,213,7.0,9.0,55,0.00,,,0.00,VWS V14.01,2013-03-28 17:40:00,
2013-03-28 12:45:00,67.5,50.8,30.17,South,182,1.0,9.0,55,0.00,,,0.00,VWS V14.01,2013-03-28 17:45:00,
2013-03-28 12:50:00,67.0,50.8,30.17,South,182,4.0,10.0,56,0.00,,,0.00,VWS V14.01,2013-03-28 17:50:00,
2013-03-28 12:55:00,67.0,50.8,30.17,South,182,4.0,10.0,56,0.00,,,0.00,VWS V14.01,2013-03-28 17:55:00,
2013-03-28 13:00:00,67.4,50.7,30.17,SE,132,8.0,10.0,55,0.00,,,0.00,VWS V14.01,2013-03-28 18:00:00,
2013-03-28 13:05:00,67.9,51.2,30.16,SW,214,4.0,10.0,55,0.00,,,0.00,VWS V14.01,2013-03-28 18:05:00,
2013-03-28 13:10:00,68.9,51.6,30.16,SSE,165,2.0,10.0,54,0.00,,,0.00,VWS V14.01,2013-03-28 18:10:00,
2013-03-28 13:15:00,69.6,52.2,30.16,SSE,158,2.0,10.0,54,0.00,,,0.00,VWS V14.01,2013-03-28 18:15:00,
2013-03-28 13:20:00,69.8,51.4,30.16,SE,130,4.0,10.0,52,0.00,,,0.00,VWS V14.01,2013-03-28 18:20:00,
2013-03-28 13:25:00,69.2,51.9,30.15,SE,146,0.0,10.0,54,0.00,,,0.00,VWS V14.01,2013-03-28 18:25:00,
2013-03-28 13:30:00,69.3,52.0,30.15,South,171,2.0,10.0,54,0.00,,,0.00,VWS V14.01,2013-03-28 18:30:00,
2013-03-28 13:35:00,70.4,52.5,30.15,SSE,150,0.0,7.0,53,0.00,,,0.00,VWS V14.01,2013-03-28 18:35:00,
2013-03-28 13:40:00,71.7,52.6,30.15,SSE,157,4.0,11.0,51,0.00,,,0.00,VWS V14.01,2013-03-28 18:40:00,
2013-03-28 13:45:00,71.9,52.3,30.14,SSE,149,5.0,11.0,50,0.00,,,0.00,VWS V14.01,2013-03-28 18:45:00,
2013-03-28 13:50:00,71.0,52.0,30.14,South,188,8.0,11.0,51,0.00,,,0.00,VWS V14.01,2013-03-28 18:50:00,
2013-03-28 13:55:00,70.5,52.0,30.13,SE,144,8.0,11.0,52,0.00,,,0.00,VWS V14.01,2013-03-28 18:55:00,
2013-03-28 14:00:00,70.7,52.2,30.13,South,172,4.0,11.0,52,0.00,,,0.00,VWS V14.01,2013-03-28 19:00:00,
2013-03-28 14:05:00,71.3,52.8,30.13,South,172,7.0,10.0,52,0.00,,,0.00,VWS V14.01,2013-03-28 19:05:00,
2013-03-28 14:11:00,72.7,53.0,30.13,SE,140,0.0,10.0,50,0.00,,,0.00,VWS V14.01,2013-03-28 19:11:00,
2013-03-28 14:16:00,72.6,53.5,30.13,SSE,167,3.0,10.0,51,0.00,,,0.00,VWS V14.01,2013-03-28 19:16:00,
2013-03-28 14:21:00,73.1,53.4,30.12,South,172,4.0,10.0,50,0.00,,,0.00,VWS V14.01,2013-03-28 19:21:00,
2013-03-28 14:26:00,72.7,52.5,30.12,SSE,166,4.0,14.0,49,0.00,,,0.00,VWS V14.01,2013-03-28 19:26:00,
2013-03-28 14:30:00,72.8,52.5,30.12,South,185,8.0,14.0,49,0.00,,,0.00,VWS V14.01,2013-03-28 19:30:00,
2013-03-28 14:31:00,72.8,52.5,30.12,SE,143,7.0,14.0,49,0.00,,,0.00,VWS V14.01,2013-03-28 19:31:00,
2013-03-28 14:36:00,72.8,52.5,30.11,South,178,6.0,11.0,49,0.00,,,0.00,VWS V14.01,2013-03-28 19:36:00,
2013-03-28 14:41:00,72.8,53.1,30.11,SE,146,7.0,11.0,50,0.00,,,0.00,VWS V14.01,2013-03-28 19:41:00,
2013-03-28 14:46:00,72.9,52.6,30.11,SE,125,6.0,11.0,49,0.00,,,0.00,VWS V14.01,2013-03-28 19:46:00,
2013-03-28 14:51:00,72.8,52.5,30.11,SSE,167,0.0,11.0,49,0.00,,,0.00,VWS V14.01,2013-03-28 19:51:00,
2013-03-28 14:56:00,72.7,52.5,30.11,SSE,165,6.0,12.0,49,0.00,,,0.00,VWS V14.01,2013-03-28 19:56:00,
2013-03-28 15:00:00,72.4,52.2,30.10,SE,137,6.0,12.0,49,0.00,,,0.00,VWS V14.01,2013-03-28 20:00:00,
2013-03-28 15:01:00,72.4,52.2,30.10,SE,146,3.0,12.0,49,0.00,,,0.00,VWS V14.01,2013-03-28 20:01:00,
2013-03-28 15:06:00,72.4,52.7,30.10,SSE,152,4.0,10.0,50,0.00,,,0.00,VWS V14.01,2013-03-28 20:06:00,
2013-03-28 15:11:00,72.7,51.9,30.09,South,179,2.0,10.0,48,0.00,,,0.00,VWS V14.01,2013-03-28 20:11:00,
2013-03-28 15:16:00,72.9,52.1,30.09,South,175,4.0,10.0,48,0.00,,,0.00,VWS V14.01,2013-03-28 20:16:00,
2013-03-28 15:21:00,73.3,52.5,30.09,SE,140,5.0,10.0,48,0.00,,,0.00,VWS V14.01,2013-03-28 20:21:00,
2013-03-28 15:26:00,73.5,52.6,30.09,SSW,194,1.0,10.0,48,0.00,,,0.00,VWS V14.01,2013-03-28 20:26:00,
2013-03-28 15:30:00,74.2,52.7,30.09,South,191,8.0,12.0,47,0.00,,,0.00,VWS V14.01,2013-03-28 20:30:00,
2013-03-28 15:31:00,74.1,52.6,30.09,South,188,9.0,12.0,47,0.00,,,0.00,VWS V14.01,2013-03-28 20:31:00,
2013-03-28 15:36:00,74.4,52.3,30.08,South,176,2.0,12.0,46,0.00,,,0.00,VWS V14.01,2013-03-28 20:36:00,
2013-03-28 15:41:00,74.0,51.9,30.08,SE,130,7.0,12.0,46,0.00,,,0.00,VWS V14.01,2013-03-28 20:41:00,
2013-03-28 15:46:00,73.5,52.1,30.08,SE,135,8.0,12.0,47,0.00,,,0.00,VWS V14.01,2013-03-28 20:46:00,
2013-03-28 15:51:00,73.6,52.2,30.08,SSE,150,5.0,12.0,47,0.00,,,0.00,VWS V14.01,2013-03-28 20:51:00,
2013-03-28 15:56:00,73.5,52.6,30.09,SE,128,6.0,12.0,48,0.00,,,0.00,VWS V14.01,2013-03-28 20:56:00,
2013-03-28 16:00:00,74.3,52.8,30.08,South,173,2.0,12.0,47,0.00,,,0.00,VWS V14.01,2013-03-28 21:00:00,
2013-03-28 16:01:00,74.1,52.6,30.08,South,175,5.0,12.0,47,0.00,,,0.00,VWS V14.01,2013-03-28 21:01:00,
2013-03-28 16:06:00,75.1,52.9,30.08,ESE,123,6.0,8.0,46,0.00,,,0.00,VWS V14.01,2013-03-28 21:06:00,
2013-03-28 16:11:00,75.0,52.2,30.08,SSE,165,5.0,9.0,45,0.00,,,0.00,VWS V14.01,2013-03-28 21:11:00,
2013-03-28 16:16:00,74.4,52.3,30.07,East,88,4.0,14.0,46,0.00,,,0.00,VWS V14.01,2013-03-28 21:16:00,
2013-03-28 16:21:00,74.4,52.9,30.07,SE,132,8.0,14.0,47,0.00,,,0.00,VWS V14.01,2013-03-28 21:21:00,
2013-03-28 16:26:00,74.2,52.7,30.07,South,169,2.0,14.0,47,0.00,,,0.00,VWS V14.01,2013-03-28 21:26:00,
2013-03-28 16:30:00,74.6,52.5,30.07,South,185,3.0,14.0,46,0.00,,,0.00,VWS V14.01,2013-03-28 21:30:00,
2013-03-28 16:31:00,74.6,52.5,30.07,SSE,159,6.0,14.0,46,0.00,,,0.00,VWS V14.01,2013-03-28 21:31:00,
2013-03-28 16:36:00,74.4,52.9,30.07,SE,144,8.0,12.0,47,0.00,,,0.00,VWS V14.01,2013-03-28 21:36:00,
2013-03-28 16:41:00,73.4,52.5,30.07,SSE,156,0.0,12.0,48,0.00,,,0.00,VWS V14.01,2013-03-28 21:41:00,
2013-03-28 16:46:00,73.6,53.3,30.06,SSE,163,2.0,12.0,49,0.00,,,0.00,VWS V14.01,2013-03-28 21:46:00,
2013-03-28 16:51:00,74.7,53.2,30.06,SE,133,8.0,12.0,47,0.00,,,0.00,VWS V14.01,2013-03-28 21:51:00,
2013-03-28 16:56:00,74.9,52.8,30.06,South,173,6.0,12.0,46,0.00,,,0.00,VWS V14.01,2013-03-28 21:56:00,
2013-03-28 17:00:00,74.4,52.9,30.06,SSE,161,3.0,13.0,47,0.00,,,0.00,VWS V14.01,2013-03-28 22:00:00,
2013-03-28 17:01:00,74.4,52.9,30.06,South,183,2.0,13.0,47,0.00,,,0.00,VWS V14.01,2013-03-28 22:01:00,
2013-03-28 17:06:00,73.9,52.4,30.06,SE,146,5.0,11.0,47,0.00,,,0.00,VWS V14.01,2013-03-28 22:06:00,
2013-03-28 17:11:00,74.0,52.5,30.06,SE,142,4.0,11.0,47,0.00,,,0.00,VWS V14.01,2013-03-28 22:11:00,
2013-03-28 17:16:00,74.6,53.1,30.06,SE,132,9.0,11.0,47,0.00,,,0.00,VWS V14.01,2013-03-28 22:16:00,
2013-03-28 17:21:00,74.8,53.2,30.06,SSE,151,7.0,11.0,47,0.00,,,0.00,VWS V14.01,2013-03-28 22:21:00,
2013-03-28 17:26:00,74.5,53.0,30.06,SSE,155,6.0,11.0,47,0.00,,,0.00,VWS V14.01,2013-03-28 22:26:00,
2013-03-28 17:30:00,73.6,52.7,30.06,South,189,0.0,11.0,48,0.00,,,0.00,VWS V14.01,2013-03-28 22:30:00,
2013-03-28 17:31:00,73.7,52.8,30.06,SSW,213,6.0,11.0,48,0.00,,,0.00,VWS V14.01,2013-03-28 22:31:00,
2013-03-28 17:36:00,73.0,53.3,30.06,SSE,153,6.0,9.0,50,0.00,,,0.00,VWS V14.01,2013-03-28 22:36:00,
2013-03-28 17:41:00,72.7,52.5,30.06,SSW,206,4.0,10.0,49,0.00,,,0.00,VWS V14.01,2013-03-28 22:41:00,
2013-03-28 17:46:00,72.5,52.3,30.06,South,174,6.0,10.0,49,0.00,,,0.00,VWS V14.01,2013-03-28 22:46:00,
2013-03-28 17:51:00,72.1,52.5,30.06,South,171,4.0,12.0,50,0.00,,,0.00,VWS V14.01,2013-03-28 22:51:00,
2013-03-28 17:56:00,71.8,52.7,30.06,South,175,4.0,12.0,51,0.00,,,0.00,VWS V14.01,2013-03-28 22:56:00,
2013-03-28 18:01:00,71.7,52.6,30.06,South,175,5.0,12.0,51,0.00,,,0.00,VWS V14.01,2013-03-28 23:01:00,
2013-03-28 18:06:00,71.3,52.3,30.06,SE,145,5.0,7.0,51,0.00,,,0.00,VWS V14.01,2013-03-28 23:06:00,
2013-03-28 18:11:00,71.1,52.1,30.07,SW,217,6.0,11.0,51,0.00,,,0.00,VWS V14.01,2013-03-28 23:11:00,
2013-03-28 18:15:00,70.7,52.2,30.07,South,175,6.0,13.0,52,0.00,,,0.00,VWS V14.01,2013-03-28 23:15:00,
2013-03-28 18:20:00,70.4,52.5,30.07,SE,145,2.0,13.0,53,0.00,,,0.00,VWS V14.01,2013-03-28 23:20:00,
2013-03-28 18:26:00,70.2,51.8,30.07,South,175,4.0,13.0,52,0.00,,,0.00,VWS V14.01,2013-03-28 23:26:00,
2013-03-28 18:30:00,70.0,52.1,30.07,SSE,153,5.0,13.0,53,0.00,,,0.00,VWS V14.01,2013-03-28 23:30:00,
2013-03-28 18:31:00,70.0,52.1,30.07,South,171,2.0,13.0,53,0.00,,,0.00,VWS V14.01,2013-03-28 23:31:00,
2013-03-28 18:36:00,69.9,52.5,30.07,South,184,6.0,10.0,54,0.00,,,0.00,VWS V14.01,2013-03-28 23:36:00,
2013-03-28 18:41:00,69.7,52.3,30.07,SSE,159,2.0,10.0,54,0.00,,,0.00,VWS V14.01,2013-03-28 23:41:00,
2013-03-28 18:46:00,69.5,52.6,30.07,South,171,2.0,10.0,55,0.00,,,0.00,VWS V14.01,2013-03-28 23:46:00,
2013-03-28 18:51:00,69.4,52.5,30.07,SE,130,6.0,10.0,55,0.00,,,0.00,VWS V14.01,2013-03-28 23:51:00,
2013-03-28 18:56:00,69.1,52.3,30.07,SE,141,6.0,10.0,55,0.00,,,0.00,VWS V14.01,2013-03-28 23:56:00,
2013-03-28 19:00:00,68.9,52.6,30.08,South,170,0.0,10.0,56,0.00,,,0.00,VWS V14.01,2013-03-29 00:00:00,
2013-03-28 19:01:00,68.9,52.1,30.08,ESE,119,0.0,10.0,55,0.00,,,0.00,VWS V14.01,2013-03-29 00:01:00,
2013-03-28 19:06:00,68.8,52.5,30.08,South,179,2.0,9.0,56,0.00,,,0.00,VWS V14.01,2013-03-29 00:06:00,
2013-03-28 19:11:00,68.6,52.3,30.08,SSE,167,2.0,9.0,56,0.00,,,0.00,VWS V14.01,2013-03-29 00:11:00,
2013-03-28 19:16:00,68.4,52.1,30.08,SE,145,0.0,9.0,56,0.00,,,0.00,VWS V14.01,2013-03-29 00:16:00,
2013-03-28 19:21:00,68.3,52.0,30.08,SSE,157,0.0,9.0,56,0.00,,,0.00,VWS V14.01,2013-03-29 00:21:00,
2013-03-28 19:26:00,68.2,52.4,30.08,SSE,157,0.0,9.0,57,0.00,,,0.00,VWS V14.01,2013-03-29 00:26:00,
2013-03-28 19:30:00,67.9,52.1,30.08,South,169,2.0,9.0,57,0.00,,,0.00,VWS V14.01,2013-03-29 00:30:00,
2013-03-28 19:31:00,68.0,52.2,30.08,South,180,0.0,9.0,57,0.00,,,0.00,VWS V14.01,2013-03-29 00:31:00,
2013-03-28 19:36:00,67.7,52.4,30.08,SSE,159,1.0,4.0,58,0.00,,,0.00,VWS V14.01,2013-03-29 00:36:00,
2013-03-28 19:41:00,67.5,52.2,30.08,SE,134,2.0,6.0,58,0.00,,,0.00,VWS V14.01,2013-03-29 00:41:00,
2013-03-28 19:46:00,67.2,51.9,30.08,SE,133,0.0,6.0,58,0.00,,,0.00,VWS V14.01,2013-03-29 00:46:00,
2013-03-28 19:51:00,67.0,52.2,30.08,SE,136,0.0,6.0,59,0.00,,,0.00,VWS V14.01,2013-03-29 00:51:00,
2013-03-28 19:56:00,66.8,52.0,30.08,SE,136,0.0,6.0,59,0.00,,,0.00,VWS V14.01,2013-03-29 00:56:00,
2013-03-28 20:00:00,66.5,52.2,30.09,SSE,164,4.0,6.0,60,0.00,,,0.00,VWS V14.01,2013-03-29 01:00:00,
2013-03-28 20:01:00,66.6,52.3,30.09,SE,136,0.0,6.0,60,0.00,,,0.00,VWS V14.01,2013-03-29 01:01:00,
2013-03-28 20:06:00,66.3,52.0,30.09,SE,134,5.0,5.0,60,0.00,,,0.00,VWS V14.01,2013-03-29 01:06:00,
2013-03-28 20:11:00,66.1,52.3,30.09,SE,135,0.0,5.0,61,0.00,,,0.00,VWS V14.01,2013-03-29 01:11:00,
2013-03-28 20:16:00,65.9,52.1,30.09,South,188,0.0,5.0,61,0.00,,,0.00,VWS V14.01,2013-03-29 01:16:00,
2013-03-28 20:21:00,65.7,51.9,30.10,South,188,0.0,5.0,61,0.00,,,0.00,VWS V14.01,2013-03-29 01:21:00,
2013-03-28 20:26:00,65.6,52.2,30.10,South,188,0.0,5.0,62,0.00,,,0.00,VWS V14.01,2013-03-29 01:26:00,
2013-03-28 20:30:00,65.3,52.0,30.10,South,176,0.0,5.0,62,0.00,,,0.00,VWS V14.01,2013-03-29 01:30:00,
2013-03-28 20:31:00,65.4,52.1,30.10,SSE,156,1.0,5.0,62,0.00,,,0.00,VWS V14.01,2013-03-29 01:31:00,
2013-03-28 20:36:00,65.2,51.9,30.10,South,177,0.0,3.0,62,0.00,,,0.00,VWS V14.01,2013-03-29 01:36:00,
2013-03-28 20:41:00,65.0,52.1,30.10,South,170,0.0,3.0,63,0.00,,,0.00,VWS V14.01,2013-03-29 01:41:00,
2013-03-28 20:46:00,64.9,52.0,30.10,South,170,0.0,3.0,63,0.00,,,0.00,VWS V14.01,2013-03-29 01:46:00,
2013-03-28 20:51:00,64.8,51.5,30.10,South,170,0.0,3.0,62,0.00,,,0.00,VWS V14.01,2013-03-29 01:51:00,
2013-03-28 20:56:00,64.6,51.7,30.10,South,169,0.0,3.0,63,0.00,,,0.00,VWS V14.01,2013-03-29 01:56:00,
2013-03-28 21:00:00,64.4,52.0,30.10,South,169,0.0,3.0,64,0.00,,,0.00,VWS V14.01,2013-03-29 02:00:00,
2013-03-28 21:01:00,64.4,51.5,30.10,South,169,0.0,3.0,63,0.00,,,0.00,VWS V14.01,2013-03-29 02:01:00,
2013-03-28 21:06:00,64.2,51.8,30.11,South,170,0.0,0.0,64,0.00,,,0.00,VWS V14.01,2013-03-29 02:06:00,
2013-03-28 21:11:00,64.0,51.6,30.11,South,169,0.0,0.0,64,0.00,,,0.00,VWS V14.01,2013-03-29 02:11:00,
2013-03-28 21:16:00,63.7,51.3,30.11,South,170,0.0,0.0,64,0.00,,,0.00,VWS V14.01,2013-03-29 02:16:00,
2013-03-28 21:21:00,63.5,51.5,30.11,South,170,0.0,0.0,65,0.00,,,0.00,VWS V14.01,2013-03-29 02:21:00,
2013-03-28 21:26:00,63.2,51.7,30.12,South,170,0.0,0.0,66,0.00,,,0.00,VWS V14.01,2013-03-29 02:26:00,
2013-03-28 21:30:00,62.9,51.8,30.12,South,170,0.0,0.0,67,0.00,,,0.00,VWS V14.01,2013-03-29 02:30:00,
2013-03-28 21:31:00,63.0,51.5,30.12,South,170,0.0,0.0,66,0.00,,,0.00,VWS V14.01,2013-03-29 02:31:00,
2013-03-28 21:36:00,62.7,51.6,30.12,South,169,0.0,0.0,67,0.00,,,0.00,VWS V14.01,2013-03-29 02:36:00,
2013-03-28 21:41:00,62.5,51.4,30.12,South,170,0.0,0.0,67,0.00,,,0.00,VWS V14.01,2013-03-29 02:41:00,
2013-03-28 21:46:00,62.2,51.5,30.12,South,169,0.0,0.0,68,0.00,,,0.00,VWS V14.01,2013-03-29 02:46:00,
2013-03-28 21:51:00,62.0,51.3,30.12,South,170,0.0,0.0,68,0.00,,,0.00,VWS V14.01,2013-03-29 02:51:00,
2013-03-28 21:56:00,61.8,51.1,30.12,South,170,0.0,0.0,68,0.00,,,0.00,VWS V14.01,2013-03-29 02:56:00,
2013-03-28 22:00:00,61.6,51.3,30.12,South,169,0.0,0.0,69,0.00,,,0.00,VWS V14.01,2013-03-29 03:00:00,
2013-03-28 22:01:00,61.6,51.3,30.12,South,170,0.0,0.0,69,0.00,,,0.00,VWS V14.01,2013-03-29 03:01:00,
2013-03-28 22:06:00,61.5,51.2,30.12,South,170,0.0,0.0,69,0.00,,,0.00,VWS V14.01,2013-03-29 03:06:00,
2013-03-28 22:11:00,61.3,51.5,30.12,South,170,0.0,1.0,70,0.00,,,0.00,VWS V14.01,2013-03-29 03:11:00,
2013-03-28 22:16:00,61.2,51.3,30.12,South,170,0.0,1.0,70,0.00,,,0.00,VWS V14.01,2013-03-29 03:16:00,
2013-03-28 22:21:00,61.1,51.2,30.12,South,169,0.0,2.0,70,0.00,,,0.00,VWS V14.01,2013-03-29 03:21:00,
2013-03-28 22:26:00,61.1,51.2,30.12,South,170,0.0,4.0,70,0.00,,,0.00,VWS V14.01,2013-03-29 03:26:00,
2013-03-28 22:30:00,60.9,51.1,30.12,SSE,147,3.0,5.0,70,0.00,,,0.00,VWS V14.01,2013-03-29 03:30:00,
2013-03-28 22:31:00,60.9,51.1,30.12,SSE,165,1.0,4.0,70,0.00,,,0.00,VWS V14.01,2013-03-29 03:31:00,
2013-03-28 22:36:00,60.9,51.1,30.11,SSE,147,0.0,4.0,70,0.00,,,0.00,VWS V14.01,2013-03-29 03:36:00,
2013-03-28 22:41:00,60.8,51.3,30.11,SSE,160,0.0,4.0,71,0.00,,,0.00,VWS V14.01,2013-03-29 03:41:00,
2013-03-28 22:46:00,60.8,51.3,30.11,SSE,161,0.0,4.0,71,0.00,,,0.00,VWS V14.01,2013-03-29 03:46:00,
2013-03-28 22:52:00,60.8,51.3,30.11,SSE,161,0.0,4.0,71,0.00,,,0.00,VWS V14.01,2013-03-29 03:52:00,
2013-03-28 22:57:00,60.7,50.9,30.12,SSE,161,0.0,4.0,70,0.00,,,0.00,VWS V14.01,2013-03-29 03:57:00,
2013-03-28 23:00:00,60.7,51.2,30.12,SSE,161,0.0,4.0,71,0.00,,,0.00,VWS V14.01,2013-03-29 04:00:00,
2013-03-28 23:05:00,60.6,51.2,30.12,SSE,161,0.0,3.0,71,0.00,,,0.00,VWS V14.01,2013-03-29 04:05:00,
2013-03-28 23:10:00,60.5,51.1,30.11,SSE,156,0.0,3.0,71,0.00,,,0.00,VWS V14.01,2013-03-29 04:10:00,
2013-03-28 23:15:00,60.5,51.1,30.12,SSE,157,0.0,3.0,71,0.00,,,0.00,VWS V14.01,2013-03-29 04:15:00,
2013-03-28 23:20:00,60.5,51.4,30.12,SSE,156,0.0,3.0,72,0.00,,,0.00,VWS V14.01,2013-03-29 04:20:00,
2013-03-28 23:25:00,60.4,51.3,30.12,SSE,156,0.0,3.0,72,0.00,,,0.00,VWS V14.01,2013-03-29 04:25:00,
2013-03-28 23:30:00,60.4,51.3,30.12,SSE,156,0.0,3.0,72,0.00,,,0.00,VWS V14.01,2013-03-29 04:30:00,
2013-03-28 23:35:00,60.3,51.2,30.11,SSE,157,0.0,0.0,72,0.00,,,0.00,VWS V14.01,2013-03-29 04:35:00,
2013-03-28 23:40:00,60.2,51.2,30.11,SSE,157,0.0,0.0,72,0.00,,,0.00,VWS V14.01,2013-03-29 04:40:00,
2013-03-28 23:45:00,60.1,51.1,30.12,SSE,157,0.0,0.0,72,0.00,,,0.00,VWS V14.01,2013-03-29 04:45:00,
2013-03-28 23:50:00,60.0,51.3,30.11,SSE,157,0.0,1.0,73,0.00,,,0.00,VWS V14.01,2013-03-29 04:50:00,
2013-03-28 23:55:00,59.8,51.1,30.11,SSE,156,1.0,1.0,73,0.00,,,0.00,VWS V14.01,2013-03-29 04:55:00,